Weather History for Wise, VA

Change the Weather History Date:

Saturday, November 9, 2013

  Actual Average Record
Temperature  
Mean Temperature 42 °F -  
Max Temperature 51 °F 52 °F 71 °F (2005)
Min Temperature 32 °F 35 °F 26 °F (1996)
Degree Days  
Heating Degree Days 24    
Moisture  
Dew Point 28 °F    
Average Humidity 56    
Maximum Humidity 75    
Minimum Humidity 43    
Precipitation  
Precipitation 0.00 in - - ()
Sea Level Pressure  
Sea Level Pressure 30.23 in    
Wind  
Wind Speed 6 mph (SSW)    
Max Wind Speed 22 mph    
Max Gust Speed 31 mph    
Visibility 10 miles    
Events      
Averages and records for this station are not official NWS values.
T = Trace of Precipitation, MM = Missing Value Source: NWS Daily Summary

Daily Weather History Graph

Daily Weather History Graph

Search for Another Location

Airport:

Trip Planner

Search our weather history database for the weather conditions in past years. The results will help you decide how hot, cold, wet, or windy it might be!

Date:

Astronomy

Nov. 09, 2013 Rise Set
Actual Time 7:02 AM EST 5:24 PM EST
Civil Twilight 6:35 AM EST 5:52 PM EST
Nautical Twilight 6:04 AM EST 6:23 PM EST
Astronomical Twilight 5:33 AM EST 6:53 PM EST
Moon 12:40 PM EST (11/9) 11:51 PM EST (11/9)
Length of Visible Light 11h 16m
Length of Day
10h 22m
Waxing Crescent, 44% of the Moon is Illuminated
Nov 9
Waxing Crescent
Nov 10
First Quarter
Nov 17
Full
Nov 25
Last Quarter
Dec 2
New

Hourly Weather History & Observations

Time (EST) Temp. Windchill Dew Point Humidity Pressure Visibility Wind Dir Wind Speed Gust Speed Precip Events Conditions
12:15 AM 37.4 °F - 24.8 °F 60% 30.28 in 10.0 mi Calm Calm - N/A   Clear
12:35 AM 35.6 °F - 23.0 °F 60% 30.27 in 10.0 mi Calm Calm - N/A   Clear
12:55 AM 37.4 °F - 23.0 °F 56% 30.27 in 10.0 mi Calm Calm - N/A   Clear
1:15 AM 35.6 °F 32.8 °F 24.8 °F 65% 30.25 in 10.0 mi SSE 3.5 mph - N/A   Clear
1:35 AM 35.6 °F 32.8 °F 24.8 °F 65% 30.25 in 10.0 mi SSE 3.5 mph - N/A   Clear
1:55 AM 35.6 °F 32.8 °F 24.8 °F 65% 30.25 in 10.0 mi SSE 3.5 mph - N/A   Clear
2:15 AM 37.4 °F 32.1 °F 24.8 °F 60% 30.25 in 10.0 mi SSE 6.9 mph - N/A   Clear
2:35 AM 37.4 °F 32.1 °F 24.8 °F 60% 30.25 in 10.0 mi South 6.9 mph - N/A   Clear
2:55 AM 37.4 °F 32.8 °F 24.8 °F 60% 30.25 in 10.0 mi South 5.8 mph - N/A   Clear
3:15 AM 35.6 °F - 26.6 °F 70% 30.25 in 10.0 mi Calm Calm - N/A   Clear
3:35 AM 33.8 °F - 24.8 °F 70% 30.25 in 10.0 mi Calm Calm - N/A   Clear
3:55 AM 33.8 °F 29.6 °F 24.8 °F 70% 30.26 in 10.0 mi SSW 4.6 mph - N/A   Clear
4:15 AM 32.0 °F 27.5 °F 24.8 °F 75% 30.25 in 10.0 mi SSW 4.6 mph - N/A   Clear
4:35 AM 33.8 °F 29.6 °F 26.6 °F 75% 30.25 in 10.0 mi SSW 4.6 mph - N/A   Clear
4:55 AM 33.8 °F - 26.6 °F 75% 30.24 in 10.0 mi Calm Calm - N/A   Clear
5:15 AM 33.8 °F 30.8 °F 24.8 °F 70% 30.25 in 10.0 mi SSW 3.5 mph - N/A   Clear
5:35 AM 32.0 °F - 24.8 °F 75% 30.25 in 10.0 mi Calm Calm - N/A   Clear
5:55 AM 32.0 °F 26.4 °F 24.8 °F 75% 30.24 in 10.0 mi SSW 5.8 mph - N/A   Clear
6:15 AM 32.0 °F 26.4 °F 23.0 °F 69% 30.24 in 10.0 mi SSW 5.8 mph - N/A   Clear
6:35 AM 32.0 °F - 23.0 °F 69% 30.24 in 10.0 mi Calm Calm - N/A   Clear
6:55 AM 35.6 °F - 23.0 °F 60% 30.25 in 10.0 mi Calm Calm - N/A   Clear
7:15 AM 35.6 °F 32.8 °F 23.0 °F 60% 30.25 in 10.0 mi SSW 3.5 mph - N/A   Clear
7:35 AM 33.8 °F 28.6 °F 24.8 °F 70% 30.25 in 10.0 mi South 5.8 mph - N/A   Clear
7:55 AM 37.4 °F 32.1 °F 24.8 °F 60% 30.26 in 10.0 mi South 6.9 mph - N/A   Clear
8:15 AM 37.4 °F 32.8 °F 26.6 °F 65% 30.27 in 10.0 mi South 5.8 mph - N/A   Clear
8:35 AM 37.4 °F 32.8 °F 26.6 °F 65% 30.27 in 10.0 mi South 5.8 mph - N/A   Clear
8:55 AM 41.0 °F 37.1 °F 28.4 °F 61% 30.27 in 10.0 mi South 5.8 mph - N/A   Clear
9:15 AM 42.8 °F 38.0 °F 28.4 °F 57% 30.27 in 10.0 mi SSW 8.1 mph - N/A   Clear
9:35 AM 44.6 °F 39.7 °F 28.4 °F 53% 30.26 in 10.0 mi SW 9.2 mph - N/A   Clear
9:55 AM 44.6 °F 39.2 °F 26.6 °F 49% 30.26 in 10.0 mi SW 10.4 mph 18.4 mph N/A   Clear
10:15 AM 46.4 °F 41.1 °F 28.4 °F 50% 30.26 in 10.0 mi SW 11.5 mph 18.4 mph N/A   Clear
10:35 AM 48.2 °F - 28.4 °F 46% 30.26 in 10.0 mi SW 18.4 mph 23.0 mph N/A   Clear
10:55 AM 50.0 °F - 28.4 °F 43% 30.26 in 10.0 mi SW 20.7 mph 28.8 mph N/A   Clear
11:15 AM 50.0 °F - 28.4 °F 43% 30.25 in 10.0 mi SW 21.9 mph 27.6 mph N/A   Clear
11:35 AM 50.0 °F - 28.4 °F 43% 30.25 in 10.0 mi WSW 18.4 mph - N/A   Clear
11:55 AM 50.0 °F - 28.4 °F 43% 30.25 in 10.0 mi WSW 20.7 mph 31.1 mph N/A   Clear
12:15 PM 50.0 °F - 28.4 °F 43% 30.24 in 10.0 mi SW 16.1 mph 26.5 mph N/A   Clear
12:35 PM 50.0 °F - 28.4 °F 43% 30.23 in 10.0 mi SW 13.8 mph 25.3 mph N/A   Clear
12:55 PM 51.8 °F - 30.2 °F 44% 30.22 in 10.0 mi SW 19.6 mph 24.2 mph N/A   Clear
1:15 PM 50.0 °F - 28.4 °F 43% 30.22 in 10.0 mi SW 16.1 mph 23.0 mph N/A   Clear
1:35 PM 50.0 °F - 28.4 °F 43% 30.21 in 10.0 mi SW 16.1 mph 20.7 mph N/A   Clear
1:55 PM 50.0 °F - 30.2 °F 47% 30.21 in 10.0 mi SW 13.8 mph 20.7 mph N/A   Clear
2:15 PM 50.0 °F - 30.2 °F 47% 30.21 in 10.0 mi SW 17.3 mph 23.0 mph N/A   Clear
2:35 PM 50.0 °F - 30.2 °F 47% 30.21 in 10.0 mi SW 13.8 mph 19.6 mph N/A   Clear
2:55 PM 50.0 °F - 28.4 °F 43% 30.21 in 10.0 mi SW 15.0 mph - N/A   Clear
3:15 PM 50.0 °F - 30.2 °F 47% 30.21 in 10.0 mi SW 13.8 mph 19.6 mph N/A   Clear
3:35 PM 51.8 °F - 30.2 °F 44% 30.21 in 10.0 mi WSW 11.5 mph - N/A   Clear
3:55 PM 51.8 °F - 30.2 °F 44% 30.21 in 10.0 mi SW 10.4 mph - N/A   Clear
4:15 PM 51.8 °F - 30.2 °F 44% 30.21 in 10.0 mi SW 10.4 mph - N/A   Clear
4:35 PM 51.8 °F - 32.0 °F 47% 30.21 in 10.0 mi SW 9.2 mph - N/A   Clear
4:55 PM 50.0 °F - 30.2 °F 47% 30.21 in 10.0 mi SW 5.8 mph - N/A   Scattered Clouds
5:15 PM 48.2 °F - 30.2 °F 50% 30.20 in 10.0 mi SSW 6.9 mph - N/A   Clear
5:35 PM 46.4 °F 45.2 °F 30.2 °F 53% 30.20 in 10.0 mi SSE 3.5 mph - N/A   Clear
5:55 PM 44.6 °F 41.4 °F 30.2 °F 57% 30.19 in 10.0 mi South 5.8 mph - N/A   Clear
6:15 PM 44.6 °F 40.7 °F 30.2 °F 57% 30.19 in 10.0 mi South 6.9 mph - N/A   Clear
6:35 PM 44.6 °F 40.7 °F 28.4 °F 53% 30.18 in 10.0 mi South 6.9 mph - N/A   Clear
6:55 PM 42.8 °F 38.6 °F 28.4 °F 57% 30.18 in 10.0 mi South 6.9 mph - N/A   Clear
7:15 PM 42.8 °F 39.3 °F 30.2 °F 61% 30.18 in 10.0 mi SSW 5.8 mph - N/A   Clear
7:35 PM 44.6 °F 38.4 °F 30.2 °F 57% 30.18 in 10.0 mi SW 12.7 mph - N/A   Clear
7:55 PM 44.6 °F 39.7 °F 30.2 °F 57% 30.20 in 10.0 mi WSW 9.2 mph - N/A   Clear
8:15 PM 44.6 °F 38.8 °F 30.2 °F 57% 30.20 in 10.0 mi SW 11.5 mph 18.4 mph N/A   Clear
8:35 PM 44.6 °F 38.8 °F 30.2 °F 57% 30.21 in 10.0 mi WSW 11.5 mph 17.3 mph N/A   Clear
9:35 PM 44.6 °F 38.1 °F 28.4 °F 53% 30.21 in 10.0 mi WSW 13.8 mph - N/A   Clear
9:55 PM 44.6 °F 38.4 °F 28.4 °F 53% 30.20 in 10.0 mi SW 12.7 mph 19.6 mph N/A   Clear
10:15 PM 44.6 °F 37.4 °F 28.4 °F 53% 30.20 in 10.0 mi SW 16.1 mph - N/A   Scattered Clouds
10:35 PM 44.6 °F 37.8 °F 28.4 °F 53% 30.20 in 10.0 mi SW 15.0 mph 20.7 mph N/A   Mostly Cloudy
10:55 PM 44.6 °F 38.4 °F 28.4 °F 53% 30.21 in 10.0 mi WSW 12.7 mph - N/A   Scattered Clouds
11:15 PM 44.6 °F 37.8 °F 28.4 °F 53% 30.22 in 10.0 mi SW 15.0 mph 19.6 mph N/A   Clear
11:35 PM 44.6 °F 38.8 °F 28.4 °F 53% 30.22 in 10.0 mi WSW 11.5 mph - N/A   Clear
11:55 PM 42.8 °F 36.2 °F 30.2 °F 61% 30.22 in 10.0 mi SW 12.7 mph - N/A   Clear